Fort Benning, AL

1:18 PM CDT on May 24, 2017 (GMT -0500)
Lawson Army Air Field

Weather History for KLSF - September, 2012

Change the Weather History Date:

Tuesday, September 11, 2012

  Actual Average Record
Temperature  
Mean Temperature 70 °F -  
Max Temperature 85 °F 85 °F 98 °F (2002)
Min Temperature 58 °F 62 °F 32 °F (1996)
Cooling Degree Days 6    
Growing Degree Days 20 (Base 50)    
Moisture  
Dew Point 60 °F    
Average Humidity 88    
Maximum Humidity 100    
Minimum Humidity 39    
Precipitation  
Precipitation 0.00 in - - ()
Sea Level Pressure  
Sea Level Pressure 30.14 in    
Wind  
Wind Speed 1 mph (ESE)    
Max Wind Speed 13 mph    
Max Gust Speed 24 mph    
Visibility 4 miles    
Events Fog , Rain    
Averages and records for this station are not official NWS values.
T = Trace of Precipitation, MM = Missing Value Source: NWS Daily Summary

Daily Weather History Graph

Daily Weather History Graph

Search for Another Location

Airport or City:

Trip Planner

Search our weather history database for the weather conditions in past years. The results will help you decide how hot, cold, wet, or windy it might be!

Date:

Astronomy

Sep. 11, 2012 Rise Set
Actual Time 7:21 AM EDT 7:50 PM EDT
Civil Twilight 6:56 AM EDT 8:15 PM EDT
Nautical Twilight 6:27 AM EDT 8:44 PM EDT
Astronomical Twilight 5:58 AM EDT 9:13 PM EDT
Moon 2:50 AM EDT (9/11) 4:49 PM EDT (9/11)
Length of Visible Light 13h 18m
Length of Day
12h 29m
Waning Crescent, 21% of the Moon is Illuminated
Sep 11
Waning Crescent
Sep 15
New
Sep 22
First Quarter
Sep 29
Full
Oct 8
Last Quarter

Hourly Weather History & Observations

Time (EDT) Temp. Heat Index Dew Point Humidity Pressure Visibility Wind Dir Wind Speed Gust Speed Precip Events Conditions
12:53 AM 66.2 °F - 62.6 °F 88% 30.10 in 2.5 mi Calm Calm - N/A   Partly Cloudy
12:54 AM 66.2 °F - 62.6 °F 88% 30.10 in 1.8 mi Calm Calm - N/A   Partly Cloudy
12:55 AM 66.4 °F - 62.6 °F 88% 30.10 in 1.5 mi Calm Calm - N/A   Partly Cloudy
12:57 AM 66.2 °F - 62.6 °F 88% 30.10 in 1.2 mi Calm Calm - N/A   Partly Cloudy
1:00 AM 64.4 °F - 62.6 °F 94% 30.10 in 1.5 mi Calm Calm - N/A   Clear
1:02 AM 64.4 °F - 62.6 °F 94% 30.10 in 1.8 mi WSW 3.5 mph - N/A   Clear
1:03 AM 64.4 °F - 62.6 °F 94% 30.10 in 2.5 mi WSW 3.5 mph - N/A   Clear
1:04 AM 64.4 °F - 62.6 °F 94% 30.10 in 4.0 mi WSW 3.5 mph - N/A   Clear
1:55 AM 63.0 °F - 62.1 °F 97% 30.10 in 10.0 mi Calm Calm - N/A   Clear
2:16 AM 62.6 °F - 62.6 °F 100% 30.10 in 2.5 mi Calm Calm - N/A   Clear
2:18 AM 62.6 °F - 62.6 °F 100% 30.10 in 1.8 mi Calm Calm - N/A   Clear
2:19 AM 62.6 °F - 60.8 °F 94% 30.10 in 1.2 mi Calm Calm - N/A   Clear
2:21 AM 62.6 °F - 60.8 °F 94% 30.10 in 1.0 mi Calm Calm - N/A   Clear
2:22 AM 62.6 °F - 60.8 °F 94% 30.10 in 0.8 mi Calm Calm - N/A   Clear
2:23 AM 62.6 °F - 60.8 °F 94% 30.10 in 0.5 mi Calm Calm - N/A Fog Fog
2:24 AM 62.6 °F - 60.8 °F 94% 30.10 in 0.5 mi Calm Calm - N/A Fog Fog
2:26 AM 62.6 °F - 60.8 °F 94% 30.10 in 0.5 mi Calm Calm - N/A Fog Fog
2:29 AM 62.6 °F - 60.8 °F 94% 30.10 in 0.5 mi Calm Calm - N/A Fog Fog
2:31 AM 62.6 °F - 60.8 °F 94% 30.10 in 0.5 mi Calm Calm - N/A Fog Fog
2:32 AM 62.6 °F - 60.8 °F 94% 30.10 in 0.8 mi Calm Calm - N/A   Clear
2:33 AM 62.6 °F - 60.8 °F 94% 30.10 in 0.8 mi Calm Calm - N/A   Clear
2:34 AM 62.6 °F - 60.8 °F 94% 30.10 in 1.0 mi Calm Calm - N/A   Clear
2:35 AM 62.6 °F - 60.8 °F 94% 30.10 in 1.2 mi Calm Calm - N/A   Clear
2:36 AM 62.6 °F - 60.8 °F 94% 30.10 in 1.5 mi Calm Calm - N/A   Clear
2:37 AM 62.6 °F - 60.8 °F 94% 30.10 in 2.0 mi Calm Calm - N/A   Clear
2:39 AM 62.6 °F - 60.8 °F 94% 30.10 in 3.0 mi Calm Calm - N/A   Clear
2:55 AM 61.2 °F - 60.4 °F 97% 30.10 in 4.0 mi Calm Calm - N/A   Clear
3:55 AM 60.4 °F - 60.1 °F 99% 30.11 in 4.0 mi Calm Calm - N/A   Clear
3:58 AM 60.8 °F - 60.8 °F 100% 30.11 in 2.0 mi Calm Calm - N/A   Clear
3:59 AM 60.8 °F - 60.8 °F 100% 30.11 in 1.2 mi Calm Calm - N/A   Clear
4:00 AM 60.8 °F - 60.8 °F 100% 30.11 in 1.0 mi Calm Calm - N/A   Clear
4:01 AM 60.8 °F - 60.8 °F 100% 30.11 in 0.8 mi Calm Calm - N/A   Clear
4:03 AM 60.8 °F - 60.8 °F 100% 30.11 in 0.5 mi Calm Calm - N/A Fog Fog
4:07 AM 59.0 °F - 59.0 °F 100% 30.11 in 0.5 mi Calm Calm - N/A Fog Fog
4:08 AM 59.0 °F - 59.0 °F 100% 30.12 in 0.2 mi Calm Calm - N/A Fog Fog
4:19 AM 59.0 °F - 59.0 °F 100% 30.11 in 0.2 mi Calm Calm - N/A Fog Fog
4:20 AM 59.0 °F - 59.0 °F 100% 30.11 in 0.2 mi Calm Calm - N/A Fog Fog
4:21 AM 59.0 °F - 59.0 °F 100% 30.11 in 0.5 mi Calm Calm - N/A Fog Fog
4:22 AM 59.0 °F - 59.0 °F 100% 30.11 in 0.5 mi Calm Calm - N/A Fog Fog
4:24 AM 59.0 °F - 59.0 °F 100% 30.12 in 0.8 mi Calm Calm - N/A   Clear
4:25 AM 59.0 °F - 59.0 °F 100% 30.12 in 1.0 mi Calm Calm - N/A   Clear
4:26 AM 59.0 °F - 59.0 °F 100% 30.12 in 1.5 mi Calm Calm - N/A   Clear
4:27 AM 59.0 °F - 59.0 °F 100% 30.12 in 3.0 mi Calm Calm - N/A   Clear
4:34 AM 59.0 °F - 59.0 °F 100% 30.12 in 2.5 mi Calm Calm - N/A   Clear
4:38 AM 60.8 °F - 59.0 °F 94% 30.12 in 2.0 mi Calm Calm - N/A   Clear
4:39 AM 60.8 °F - 60.8 °F 100% 30.12 in 2.0 mi Calm Calm - N/A   Clear
4:43 AM 60.8 °F - 60.8 °F 100% 30.12 in 3.0 mi Calm Calm - N/A   Clear
4:55 AM 59.9 °F - 59.5 °F 99% 30.12 in 2.5 mi Calm Calm - N/A   Clear
4:58 AM 59.0 °F - 59.0 °F 100% 30.12 in 2.5 mi Calm Calm - N/A   Clear
5:01 AM 59.0 °F - 59.0 °F 100% 30.12 in 3.0 mi Calm Calm - N/A   Clear
5:13 AM 59.0 °F - 59.0 °F 100% 30.12 in 4.0 mi Calm Calm - N/A   Clear
5:55 AM 59.0 °F - 58.6 °F 99% 30.14 in 8.0 mi Calm Calm - N/A   Clear
6:01 AM 59.0 °F - 59.0 °F 100% 30.14 in 2.5 mi Calm Calm - N/A   Clear
6:02 AM 59.0 °F - 59.0 °F 100% 30.14 in 1.8 mi Calm Calm - N/A   Clear
6:04 AM 59.0 °F - 59.0 °F 100% 30.14 in 1.5 mi Calm Calm - N/A   Clear
6:06 AM 59.0 °F - 57.2 °F 94% 30.14 in 1.2 mi Calm Calm - N/A   Clear
6:07 AM 59.0 °F - 57.2 °F 94% 30.14 in 1.2 mi Calm Calm - N/A   Clear
6:08 AM 59.0 °F - 57.2 °F 94% 30.14 in 1.2 mi Calm Calm - N/A   Clear
6:09 AM 59.0 °F - 57.2 °F 94% 30.15 in 1.5 mi Calm Calm - N/A   Clear
6:10 AM 59.0 °F - 57.2 °F 94% 30.15 in 1.8 mi Calm Calm - N/A   Clear
6:11 AM 59.0 °F - 57.2 °F 94% 30.15 in 2.0 mi Calm Calm - N/A   Clear
6:12 AM 59.0 °F - 57.2 °F 94% 30.15 in 3.0 mi Calm Calm - N/A   Clear
6:55 AM 58.3 °F - 58.1 °F 99% 30.16 in 10.0 mi North 3.5 mph - N/A   Clear
7:25 AM 59.0 °F - 59.0 °F 100% 30.17 in 0.2 mi Calm Calm - N/A Fog Fog
7:38 AM 59.0 °F - 59.0 °F 100% 30.18 in 0.5 mi Calm Calm - N/A Fog Fog
7:55 AM 59.0 °F - 58.6 °F 99% 30.21 in 0.5 mi Calm Calm - N/A Fog Fog
8:01 AM 60.8 °F - 59.0 °F 94% 30.18 in 1.0 mi Calm Calm - N/A   Scattered Clouds
8:05 AM 60.8 °F - 60.8 °F 100% 30.20 in 2.0 mi Calm Calm - N/A   Mostly Cloudy
8:09 AM 60.8 °F - 60.8 °F 100% 30.19 in 4.0 mi Calm Calm - N/A   Mostly Cloudy
8:55 AM 65.5 °F - 65.1 °F 99% 30.21 in 10.0 mi Calm Calm - N/A   Mostly Cloudy
9:29 AM 71.6 °F - 62.6 °F 73% 30.22 in 10.0 mi Calm Calm - N/A   Light Drizzle
9:55 AM 74.3 °F - 61.0 °F 63% 30.22 in 10.0 mi Calm Calm - 0.00 in Rain Light Rain
9:57 AM 75.2 °F - 60.8 °F 61% 30.22 in 10.0 mi Calm Calm - N/A   Clear
9:58 AM 75.2 °F - 60.8 °F 61% 30.22 in 10.0 mi Calm Calm - N/A Rain Light Rain
10:52 AM 78.8 °F - 59.0 °F 51% 30.23 in 10.0 mi SE 5.8 mph - N/A   Clear
10:55 AM 78.4 °F - 59.4 °F 52% 30.23 in 10.0 mi ESE 5.8 mph - 0.00 in   Clear
11:55 AM 79.9 °F - 58.5 °F 48% 30.22 in 10.0 mi East 10.4 mph 18.4 mph N/A   Partly Cloudy
12:55 PM 82.0 °F 81.6 °F 56.1 °F 41% 30.21 in 10.0 mi East 12.7 mph 18.4 mph N/A   Scattered Clouds
1:55 PM 83.5 °F 82.6 °F 55.9 °F 39% 30.19 in 10.0 mi East 9.2 mph 24.2 mph N/A   Partly Cloudy
2:55 PM 82.2 °F 81.6 °F 55.9 °F 40% 30.18 in 10.0 mi ESE 11.5 mph 17.3 mph N/A   Partly Cloudy
3:55 PM 81.5 °F 81.6 °F 58.1 °F 45% 30.16 in 10.0 mi ESE 6.9 mph - N/A   Mostly Cloudy
4:55 PM 83.8 °F 83.4 °F 58.3 °F 42% 30.15 in 10.0 mi East 8.1 mph - N/A   Mostly Cloudy
5:55 PM 82.4 °F 82.2 °F 58.1 °F 43% 30.15 in 10.0 mi ESE 9.2 mph - N/A   Scattered Clouds
6:55 PM 81.7 °F 82.2 °F 60.3 °F 48% 30.15 in 10.0 mi East 9.2 mph - N/A   Mostly Cloudy
7:55 PM 75.0 °F - 61.9 °F 64% 30.16 in 10.0 mi East 5.8 mph - N/A   Clear
8:24 PM 69.8 °F - 62.6 °F 78% 30.17 in 10.0 mi Calm Calm - N/A Rain Light Rain
8:30 PM 68.0 °F - 62.6 °F 83% 30.16 in 10.0 mi Calm Calm - N/A   Clear
8:55 PM 68.7 °F - 61.9 °F 79% 30.17 in 10.0 mi Calm Calm - 0.00 in   Clear
9:03 PM 68.0 °F - 62.6 °F 83% 30.17 in 10.0 mi Calm Calm - N/A   Light Drizzle
9:13 PM 68.0 °F - 62.6 °F 83% 30.18 in 10.0 mi Calm Calm - N/A   Scattered Clouds
9:55 PM 65.8 °F - 62.1 °F 88% 30.19 in 10.0 mi Calm Calm - 0.00 in   Clear
10:55 PM 65.5 °F - 61.5 °F 87% 30.21 in 10.0 mi Calm Calm - N/A   Scattered Clouds
11:55 PM 68.2 °F - 60.3 °F 76% 30.22 in 10.0 mi SSE 3.5 mph - N/A   Scattered Clouds